星链-4473 (STARLINK-4473 )

导读 | 豆包AI

STARLINK-4473是美国太空探索技术公司(SpaceX)星链互联网星座的一员,于2022年8月31日发射入轨。星链项目旨在构建全球卫星互联网,为全球偏远地区提供高速网络接入服务,该卫星延续星链标准设计,为星座组网补位,助力全球覆盖能力的持续完善。

基本信息
目录编号:
53660
目录名称:
STARLINK-4473
国际标识:
2022-105N
轨道中心:
EARTH
卫星名称:
星链-4473
卫星全名:
星链-4473 (STARLINK-4473 )
卫星状态:
在轨 (已飞行1292 天)
发射日期:
2022-08-31 UTC
国别 :
美国 (US)
星等 :
--
轨道信息
数据来源 国际轨道数据 AOE轨道数据
星历时间 2026-03-14T22:55:08+0800
17小时前
查看轨道信息
2026-03-12T10:00:00+0800
3天前
查看轨道信息
半长轴 6940.905km 6941.163km
偏心率 0.0004206 0.0002547
轨道倾角 97.606° 97.604°
近地点辐角 103.570° 90.163°
升交点赤经 315.034° 312.549°
平近点角 256.599° 239.907°
近地点 559.848km 561.258km
远地点 565.688km 564.794km
周期 95.914分钟 95.920分钟
每日圈数 15.013386 15.012549
详细信息
固有亮度:
5
最大亮度:
2.5
卫星平台:
Starlink v1.5
覆盖范围:
全球
运营商:
太空探索技术公司
运营商所在国:
美国
制造商(研发单位):
太空探索技术公司
制造商所在国:
美国
使用方式:
暂无
卫星简介
星链(Starlink)计划是由太空探索技术公司(SpaceX)提出的一个巨型低轨卫星互联网星座项目,计划在2019年至2024年间在太空搭建由约1.2万颗卫星组成的“星链”网络,其中1584颗将部署在地球上空550千米处的近地轨道,并从2020年开始工作。该卫星仍在工作。
2D轨道图
3D轨道图
轨道高度分析图
轨道倾角分析图
轨道综合分析图
查看轨道综合分析图